Location: Chittendens Corners
(41.2320°N, 81.4940°W)
Time: 18:46:02
(UTC+00:00)

Cosmos 2219 - Pass Details

Date: 29 October 2020
Orbit: 832 x 862 km, 71.1° (Epoch: 24 November)

Event Time Altitude Azimuth Distance (km) Brightness Sun altitude
Rises 23:10:08 0° 337° (NNW) 3,446 6.5 -9.2°
Reaches altitude 10° 23:12:37 10° 339° (NNW) 2,507 5.8 -9.6°
Maximum altitude 23:18:24 77° 66° (ENE) 889 3.2 -10.7°
Drops below altitude 10° 23:24:08 10° 152° (SSE) 2,489 5.4 -11.8°
Sets 23:26:35 0° 154° (SSE) 3,419 6.2 -12.2°
